Weather in Oakland

United States     37°46′58″N   122°11′34″W
temp.,
°C
wind,
m/s
gust,
m/s
humid.,
%
clouds,
%
prec.,
mm/h
press.,
hPa
HPBL,
m
25 may, wed
wed2523:00+15sw12595 0.0 100912
02:00+15nw11595 0.0 100811
05:00+15nnw11585 0.0 100911
08:00+20wnw114962 0.0 100966
11:00+24wnw444299 0.0 1010313
14:00+23wnw5544100 0.0 1009213
17:00+21wnw665161 0.0 1009169
20:00+15nw44737 0.0 100963
26 may, thu
thu2623:00+13nw22869 0.0 101119
02:00+11nw229613 0.0 101021
05:00+11nw119612 0.0 101114
08:00+13sw128399 0.0 1012218
11:00+17wnw3464100 0.0 1013410
14:00+19wnw5560100 0.0 1012363
17:00+16nw4469100 0.0 1012212
20:00+13wnw5583100 0.0 1013182
27 may, fri
fri2723:00+12wnw11925 0.0 101516
02:00+11nw119327 0.0 101513
05:00+11s1195100 0.0 101512
08:00+13sw1184100 0.0 1016152
11:00+17wnw2264100 0.0 1016299
14:00+19w4652100 0.0 1016336
17:00+16w4766100 0.0 1015250
20:00+13w238386 0.0 1015100
28 may, sat
sat2823:00+12wsw229211 0.0 101521
02:00+11sw229686 0.0 101520
05:00+12ssw1294100 0.0 1014115
08:00+13wsw2490100 0.0 1014326
11:00+16w4670100 0.0 1014519
14:00+15w687498 0.0 1015393
17:00+14w468275 0.0 1014370
20:00+11wsw46842 0.0 1014291
29 may, sun
sun2923:00+9wsw46931 0.0 1014163
02:00+8wnw45910 0.0 1014128
05:00+8wnw22890 0.0 101471
08:00+11wnw24690 0.0 1015381
11:00+14wnw33510 0.0 1014624
14:00+16w67500 0.0 1013745
17:00+15wnw913550 0.0 1011500
20:00+11wnw912730 0.0 1011403